Wind_Speed
29 30 31 31 30 32 34 36 36 36 41 43 36 34 41 43 38 39 45 45 43 43 42 43 43 45 47 49 53 52 47 50 55 54 55 56 55 55 54 54 54 54 54 54 53 52 50 49 48 46 44 42 41 41 40 39 38 37 37 36 35 35 36
30 30 31 32 33 33 33 36 36 34 39 43 38 38 45 45 39 40 46 44 44 45 43 43 44 45 47 50 54 51 47 53 58 57 58 57 56 56 56 55 55 55 55 55 55 54 53 51 50 48 45 43 42 41 40 39 38 37 37 37 36 37 38
31 31 32 33 35 35 33 35 37 35 37 41 42 43 44 41 37 41 47 46 46 47 45 44 45 46 48 53 57 52 48 54 58 58 60 59 58 58 57 57 57 56 56 56 56 56 55 54 52 50 48 46 44 42 41 39 38 38 38 38 39 39 41
34 33 33 33 35 36 35 36 39 39 38 40 42 42 41 39 39 45 49 47 47 47 46 45 45 46 50 56 57 49 49 55 56 58 62 61 60 60 58 58 58 58 59 58 58 58 57 55 53 51 50 48 47 45 43 41 40 40 40 40 41 42 44
34 35 35 35 35 37 37 38 41 42 39 39 42 43 41 41 43 46 48 49 48 48 47 46 46 47 50 58 57 49 50 56 55 58 66 65 62 60 59 59 60 60 61 61 60 59 58 56 54 52 51 50 49 47 45 44 42 42 43 42 44 45 46
35 35 37 38 37 38 38 39 42 42 38 39 45 47 46 46 46 46 49 51 50 50 51 48 48 49 53 61 59 50 53 56 54 60 69 68 64 62 61 61 62 62 63 63 63 61 59 57 55 53 52 51 50 48 47 45 44 45 45 45 46 47 49
37 36 37 39 40 40 41 42 43 42 40 42 47 49 50 51 50 48 52 54 54 55 54 50 51 52 57 63 57 50 53 55 55 63 71 70 66 64 64 64 64 65 66 66 65 63 61 58 56 55 53 52 51 49 48 46 46 47 47 47 48 49 50
39 38 38 40 41 41 41 43 44 45 45 45 46 49 51 53 51 49 54 58 59 60 56 52 55 56 60 63 55 49 55 58 60 67 72 71 68 67 67 67 67 68 69 69 67 65 63 59 57 56 54 53 52 50 49 48 48 48 48 49 50 51 52
40 41 41 42 43 43 42 44 46 46 46 47 50 51 51 52 51 52 57 61 62 61 56 55 60 61 61 62 54 51 60 64 63 68 72 71 70 69 69 70 71 71 71 70 69 67 65 62 59 57 55 54 53 52 51 51 50 49 49 50 51 52 54
43 43 43 45 46 46 45 46 47 46 47 50 53 51 49 53 55 56 59 63 63 61 58 59 64 63 61 63 59 57 64 67 64 69 75 73 72 71 71 73 74 74 73 72 70 68 66 64 61 59 57 56 55 54 53 52 52 52 51 51 52 53 54
46 45 46 46 48 48 48 49 49 49 50 52 53 51 51 55 57 57 61 64 63 62 62 63 66 63 60 64 63 60 66 68 66 71 77 75 74 74 74 75 77 77 76 74 73 70 66 64 62 60 59 57 56 55 53 53 53 54 54 54 54 55 55
49 49 47 46 48 49 50 50 51 53 52 52 52 53 55 58 58 59 63 65 63 63 64 65 68 67 64 65 62 61 69 72 69 74 79 76 76 77 76 77 79 80 79 78 76 72 68 65 63 61 59 59 57 56 54 53 52 53 55 56 56 57 59
52 51 50 49 49 50 51 51 51 54 54 53 54 56 57 59 59 60 65 65 63 65 67 68 71 71 68 64 61 64 73 74 72 77 79 76 78 78 77 79 81 81 82 81 78 73 69 67 64 61 59 58 57 56 54 53 52 53 55 56 56 58 61
54 53 53 52 51 50 50 49 51 55 56 56 57 57 59 60 60 62 66 65 65 68 71 72 73 71 68 64 64 69 76 75 76 79 78 77 79 79 79 81 82 83 84 83 80 75 72 69 65 62 58 55 55 54 53 54 54 53 55 56 56 58 61
56 55 55 54 53 51 49 50 54 55 55 57 58 58 60 63 63 64 67 67 68 70 73 76 77 74 71 68 67 73 80 81 80 80 79 79 80 80 81 83 84 85 85 84 82 77 74 71 66 62 57 55 54 53 54 56 57 55 54 56 58 60 63
58 58 57 55 55 54 52 53 55 54 55 58 58 58 62 64 64 66 69 72 72 72 76 81 80 77 75 71 68 75 84 85 82 81 81 82 82 82 83 85 85 86 86 85 84 80 76 72 67 62 58 56 56 55 56 58 58 56 56 57 59 62 65
59 59 59 57 57 57 56 55 55 55 58 60 59 59 64 66 66 67 70 74 74 74 80 83 81 79 76 68 67 77 86 85 82 82 83 84 83 84 85 86 87 88 87 86 85 81 77 72 68 63 58 56 57 58 59 59 58 57 58 59 61 65 68
60 60 61 61 60 59 58 58 57 57 59 62 62 63 67 69 68 68 72 76 75 77 82 82 81 80 74 68 72 83 87 85 83 83 83 84 85 85 86 87 89 90 88 87 85 81 76 73 70 64 58 57 59 59 59 58 59 59 60 62 64 67 70
62 61 62 63 63 62 61 61 61 60 60 63 66 67 70 72 70 72 76 76 75 79 81 80 80 77 73 74 81 85 86 85 85 84 83 85 85 86 87 89 90 90 88 86 84 80 77 73 69 64 61 61 62 59 57 58 60 62 64 66 68 69 71
64 64 64 65 65 66 65 64 64 64 64 66 69 72 72 73 73 76 77 77 78 77 74 76 79 76 77 83 85 85 87 87 86 85 84 85 86 86 88 90 91 90 88 86 84 80 77 72 67 65 65 64 62 59 57 60 62 63 66 70 72 74 75
66 67 66 67 68 68 67 66 67 68 68 69 71 71 71 75 78 78 77 76 73 68 69 76 80 80 83 87 85 86 89 87 86 87 86 86 86 87 89 91 91 89 87 86 84 80 77 72 67 65 63 61 60 60 61 63 64 65 69 72 74 75 76
68 68 68 69 70 69 68 68 68 70 71 71 71 72 74 79 78 75 75 73 67 66 75 82 83 84 89 89 88 90 89 86 87 87 87 87 87 88 90 90 89 88 88 86 83 79 75 71 67 63 62 61 61 63 65 66 67 69 72 74 75 76 77
70 70 70 70 71 71 72 71 70 71 73 72 73 75 76 76 74 75 78 77 74 76 82 84 86 90 91 90 91 91 87 85 85 86 88 89 89 90 91 89 88 89 89 86 82 78 74 71 68 65 65 64 64 65 68 69 70 72 75 76 78 78 77
72 72 72 71 72 73 73 73 72 71 70 71 74 76 76 76 77 78 79 81 81 82 84 87 90 91 90 91 90 87 85 84 83 86 91 92 93 94 93 90 89 88 87 85 80 76 73 71 70 69 69 69 68 69 71 72 74 76 78 79 79 76 74
73 73 73 73 73 74 74 75 74 72 72 74 78 79 77 76 77 78 81 85 86 86 89 91 90 89 90 90 87 85 85 84 84 89 94 96 97 97 95 93 91 89 86 83 79 76 74 73 73 73 74 74 73 73 75 77 78 79 81 81 78 74 74
75 73 73 74 74 74 75 76 77 77 78 80 82 77 69 68 76 83 86 87 87 89 90 88 86 88 89 86 85 86 86 85 88 93 96 97 98 97 95 95 93 90 87 82 78 76 75 75 76 76 76 77 76 76 78 80 80 82 83 82 79 78 76
75 73 74 75 75 76 77 77 80 82 79 79 78 73 67 72 83 89 88 88 89 90 88 85 86 88 87 85 86 87 85 87 93 97 98 98 99 97 97 97 94 91 87 81 78 77 76 76 77 78 78 79 79 79 80 82 83 84 84 83 82 80 76
76 76 75 75 76 77 74 71 74 77 75 74 75 74 74 80 86 88 89 90 89 86 85 86 88 89 88 87 86 86 87 92 98 100 99 98 98 98 98 98 95 91 86 82 81 81 80 80 80 81 82 82 82 83 82 83 83 83 82 81 80 76 71
76 78 77 76 77 77 73 70 72 75 76 79 82 83 84 86 86 87 88 89 88 86 87 88 89 91 91 89 89 92 97 100 102 101 99 97 97 98 98 97 94 90 85 82 82 83 83 84 84 85 85 85 85 85 85 84 83 81 79 78 75 71 67
76 78 77 77 78 78 77 77 79 80 82 85 87 86 86 87 86 85 86 88 88 87 87 87 89 91 90 90 96 103 105 104 102 100 99 98 97 97 97 95 91 88 84 83 83 84 85 86 86 86 87 88 88 87 86 85 82 79 77 74 70 66 63
78 79 79 80 80 80 80 81 82 83 85 86 84 84 86 86 84 83 83 84 83 84 87 91 91 91 92 98 106 109 106 102 100 99 98 99 98 97 95 93 89 87 85 85 86 86 86 87 88 88 88 89 89 88 86 84 82 79 76 71 65 62 58
81 82 82 82 82 83 84 85 86 87 87 84 82 84 85 86 85 84 83 83 85 89 94 96 94 94 99 105 110 108 104 100 99 99 99 99 98 97 94 91 89 87 86 87 88 88 88 89 90 90 90 90 89 88 86 83 80 77 73 67 62 58 54
83 84 84 83 82 83 85 87 89 89 86 82 82 84 85 86 87 87 87 88 91 94 96 96 96 98 103 107 108 105 102 100 100 100 99 98 97 95 91 90 89 88 87 88 89 90 90 91 92 93 91 89 87 85 83 81 78 74 69 63 58 54 49
82 82 82 80 80 81 83 86 87 84 78 75 79 84 86 86 87 89 91 93 94 96 98 100 100 101 104 106 106 103 102 102 102 101 100 98 95 92 91 90 90 90 90 91 91 92 93 93 93 92 88 84 82 82 80 78 75 71 65 59 54 49 45
82 82 82 80 79 81 83 83 83 80 75 74 78 84 88 90 91 94 97 99 98 99 101 101 102 103 105 105 104 102 102 102 101 101 100 97 94 92 91 92 92 92 92 93 94 94 94 92 90 86 83 82 83 81 78 75 72 68 62 56 50 46 41
83 85 84 83 83 84 85 85 83 81 79 79 82 86 90 94 97 100 102 103 102 102 101 101 102 104 104 102 102 101 100 100 100 99 97 95 94 92 92 93 94 94 94 95 95 93 92 90 87 85 83 83 82 79 75 72 70 65 59 53 48 42 38
85 86 86 84 84 85 85 84 83 81 82 86 89 92 95 98 101 103 103 103 103 103 103 104 105 105 103 102 102 101 99 98 97 96 95 94 94 93 93 95 95 94 94 95 93 92 90 88 86 84 83 81 79 77 73 70 67 62 56 51 46 40 35
86 87 87 86 86 86 86 86 86 87 90 93 95 96 97 98 99 100 101 102 102 103 105 106 106 105 104 103 102 99 97 96 95 94 94 94 95 95 96 97 96 95 95 94 92 90 88 85 83 82 80 77 75 74 70 66 63 58 54 49 44 38 34
Wind_Direction
312 315 318 316 317 321 323 324 323 326 331 331 327 322 325 328 326 329 336 338 337 335 331 332 332 333 334 336 336 334 334 339 341 341 341 339 336 335 335 334 333 332 330 328 326 323 319 314 310 307 304 301 297 293 291 288 285 283 280 277 275 273 274
308 310 313 314 314 316 321 322 320 321 329 331 327 319 320 322 319 324 333 336 336 334 329 328 329 330 332 334 335 333 332 337 341 342 341 339 337 335 334 333 333 331 329 328 326 323 320 316 312 308 304 300 296 293 291 288 286 283 281 278 275 273 273
305 307 309 311 313 314 318 320 317 317 323 327 325 319 316 317 317 325 332 333 333 331 327 325 325 327 328 330 332 331 331 335 339 343 342 338 336 335 334 333 332 331 329 327 325 323 320 317 313 309 305 301 297 295 292 290 287 284 281 278 277 275 275
304 306 307 309 311 311 313 317 317 316 316 320 324 321 316 315 319 326 331 330 328 327 324 322 322 324 326 329 330 329 330 334 338 342 341 336 333 333 334 334 332 331 329 327 325 323 321 318 314 310 305 301 298 296 294 291 289 285 282 279 278 277 278
302 305 306 307 309 309 310 314 317 316 313 315 321 321 316 314 315 319 325 326 323 322 320 319 320 322 325 331 331 325 325 331 336 341 339 335 332 332 333 334 332 330 328 327 325 323 321 318 314 309 305 301 298 296 294 292 289 286 283 281 279 279 280
300 302 305 305 307 307 308 311 313 313 312 312 316 317 315 315 312 312 318 322 320 318 318 318 319 321 326 331 330 323 323 329 333 335 336 334 332 332 333 333 332 331 328 326 324 322 321 318 314 310 305 301 298 295 293 291 289 286 284 282 281 281 282
297 299 300 301 303 304 306 309 309 309 307 306 311 313 314 314 312 309 314 319 319 318 317 319 321 323 328 330 328 325 326 328 329 331 332 332 331 331 332 332 332 331 329 327 325 322 321 318 315 311 307 303 300 296 294 291 289 287 286 285 284 284 285
294 295 295 296 298 300 305 307 304 304 304 303 307 309 309 311 310 309 314 317 319 319 318 321 322 322 328 332 328 327 329 326 325 328 330 331 330 330 332 332 331 331 329 327 325 322 321 319 316 313 309 305 301 298 296 294 291 289 289 289 289 288 288
290 292 293 293 294 296 299 300 299 301 302 301 303 305 306 310 311 311 314 316 318 320 319 320 322 321 326 331 328 325 328 326 324 327 330 330 329 330 331 331 331 330 329 327 326 323 321 319 317 314 311 308 304 301 299 296 294 293 292 292 292 291 291
288 290 291 291 292 293 296 297 298 299 299 298 300 303 305 310 311 310 313 314 315 318 319 319 322 322 324 329 326 319 323 326 323 327 330 329 329 330 331 331 330 329 329 327 325 324 321 319 318 315 312 309 306 303 300 298 297 297 296 294 293 292 292
287 288 290 291 292 293 295 297 297 298 297 298 300 302 305 310 311 308 310 313 313 317 319 319 321 323 321 324 323 317 320 324 324 326 329 328 328 331 330 330 329 328 327 326 325 324 322 320 318 315 312 309 306 304 301 300 300 300 300 298 296 295 294
287 288 289 291 292 293 294 295 295 297 298 298 299 301 304 309 310 307 308 310 313 317 319 317 319 321 318 318 320 318 320 324 324 326 327 327 329 330 329 329 328 327 327 326 325 324 322 320 318 315 312 310 308 305 303 302 302 302 302 302 301 301 299
286 287 288 290 291 293 295 294 293 296 297 297 299 300 303 306 308 308 308 308 312 316 317 316 317 319 317 316 318 320 322 323 323 325 326 326 328 329 328 328 327 326 326 326 325 324 322 320 317 314 312 310 308 306 304 304 304 304 304 303 304 303 301
285 286 288 289 290 292 295 292 292 295 296 297 300 301 303 305 306 307 309 308 310 315 316 315 316 317 316 315 315 318 322 322 322 324 325 326 327 327 327 327 326 326 326 326 326 324 322 320 317 314 312 309 308 306 305 305 305 305 305 304 304 303 302
284 286 286 288 289 291 291 289 290 292 294 297 300 300 302 304 305 307 308 308 311 315 315 315 316 316 315 313 311 315 320 322 322 323 325 326 326 326 326 326 326 326 326 326 325 324 322 320 317 313 311 309 308 305 305 306 305 305 305 304 304 304 305
284 284 285 286 288 288 289 289 289 290 293 296 297 297 300 302 303 306 307 308 312 314 314 314 315 316 315 311 308 312 318 320 320 322 324 325 324 324 324 325 326 326 326 326 325 323 322 320 317 313 310 309 309 306 306 306 305 305 306 305 305 306 307
283 284 285 285 287 288 289 290 289 291 294 295 293 295 298 299 302 306 307 307 311 313 313 312 313 315 315 309 306 311 316 318 320 322 323 323 323 323 323 324 325 325 326 325 324 322 321 319 316 313 310 309 310 307 306 306 305 306 307 307 308 309 309
282 284 285 285 286 287 288 289 290 291 293 293 293 294 297 299 302 304 305 306 309 311 310 310 311 313 312 307 307 312 316 318 320 321 321 321 322 322 322 323 324 325 325 325 323 322 321 319 316 313 309 310 311 308 306 307 307 308 310 310 310 311 310
282 283 284 285 286 287 288 289 291 292 292 292 293 294 297 300 302 303 304 305 308 309 308 308 311 312 311 310 311 314 316 318 319 319 319 319 320 320 322 323 324 324 324 323 323 322 321 318 315 313 310 310 311 309 307 309 310 311 312 312 311 311 311
281 282 283 285 286 287 289 290 291 292 291 291 292 294 297 299 301 303 304 304 307 308 306 306 309 309 311 313 314 314 315 317 317 317 317 318 318 320 321 322 323 323 323 322 322 321 320 317 313 311 310 308 309 308 308 309 311 311 313 313 312 312 313
280 282 283 285 286 288 290 291 292 292 292 292 293 295 297 299 300 302 303 305 308 307 302 303 306 307 311 314 313 313 314 315 315 316 316 316 317 319 321 321 321 322 322 321 320 319 318 316 312 311 310 309 309 309 309 310 311 312 313 313 313 314 314
280 282 285 286 288 289 291 292 292 292 293 294 294 295 297 299 300 301 302 304 304 299 298 302 306 309 312 313 312 313 314 313 314 315 315 315 316 319 320 320 321 321 321 320 319 317 317 316 314 313 312 312 311 310 310 311 311 313 314 315 314 314 313
281 283 284 286 288 289 290 291 292 292 292 293 293 295 297 298 299 301 302 303 301 299 300 304 307 310 312 311 310 312 312 311 312 314 314 314 316 318 319 319 320 321 321 320 319 317 316 315 315 315 314 313 312 311 310 310 311 313 315 314 313 313 313
281 283 284 285 287 288 289 291 291 291 292 293 294 296 297 298 299 300 301 302 301 301 302 305 307 310 310 309 309 309 309 310 312 314 315 314 315 316 317 319 320 320 320 319 318 316 315 314 315 316 315 313 312 312 311 311 313 314 314 312 312 313 315
280 282 284 285 286 287 288 289 290 291 292 293 293 296 296 296 297 299 300 300 300 301 303 305 307 308 308 308 308 308 309 311 313 314 315 314 314 315 317 318 319 319 319 318 316 315 314 315 315 315 314 313 313 313 313 313 313 314 313 312 314 317 319
279 281 282 283 284 285 287 288 289 291 291 291 292 294 294 293 296 299 299 298 298 300 302 304 305 307 307 307 307 308 309 310 311 313 314 314 314 315 316 317 318 318 318 317 315 313 313 313 313 313 312 312 312 313 313 313 313 314 314 316 318 320 320
279 280 280 281 283 284 286 290 292 292 290 290 292 293 292 292 295 297 297 297 297 299 300 302 305 306 305 305 306 308 308 308 310 312 314 314 314 314 315 316 317 317 316 315 314 312 312 312 311 311 311 311 311 312 312 313 314 315 316 318 319 319 318
279 279 279 280 282 283 286 289 291 290 290 290 290 290 290 292 294 295 297 298 298 298 300 302 304 304 303 303 305 305 306 307 309 311 313 313 313 313 314 314 315 315 314 313 313 312 311 311 311 310 310 310 311 311 312 313 314 316 317 319 318 316 316
279 279 279 280 281 282 284 282 281 281 283 286 287 288 289 291 293 295 297 297 297 298 300 302 302 302 302 303 305 306 307 308 309 311 312 312 312 312 312 312 313 313 312 312 311 311 311 311 311 310 310 310 310 311 312 313 314 316 317 317 315 313 313
278 279 280 280 280 282 282 280 279 280 282 284 287 288 289 291 293 295 295 296 297 299 302 303 303 302 303 305 307 308 308 308 309 310 310 310 310 310 311 311 311 311 310 310 310 310 310 310 310 310 310 310 310 311 311 312 314 315 316 315 313 311 312
276 277 279 280 281 281 281 281 282 283 284 286 287 287 289 291 293 294 294 295 296 298 302 304 302 301 303 306 307 308 308 307 308 308 308 308 309 309 309 309 309 309 309 309 309 309 309 309 309 309 309 309 310 310 311 312 314 314 315 314 312 311 310
277 278 279 280 281 282 282 282 283 284 286 287 286 286 288 292 294 294 294 294 295 297 300 302 300 299 302 305 306 307 306 306 306 306 306 307 307 307 308 308 308 308 308 308 308 308 309 308 308 308 308 309 309 309 311 312 313 313 314 314 313 312 309
278 279 280 280 281 282 283 284 286 287 289 289 288 289 292 293 294 294 295 295 295 296 299 300 299 299 301 303 304 304 303 303 304 304 305 305 305 306 306 306 307 307 307 307 307 307 307 307 307 307 308 308 308 309 310 311 312 312 313 313 312 311 307
278 278 279 279 280 282 284 287 288 289 290 290 290 292 293 292 292 294 295 295 295 296 297 299 299 299 300 301 302 302 302 302 303 303 304 304 304 305 305 305 306 306 306 306 306 306 306 307 307 308 309 309 309 310 310 310 311 311 312 311 311 309 305
276 277 278 279 280 282 284 286 287 287 286 286 287 289 290 291 292 292 293 293 293 294 296 298 298 299 300 300 300 301 301 302 302 302 303 303 303 304 305 305 306 306 305 306 306 306 307 308 308 309 309 309 309 310 310 310 310 311 311 311 310 308 303
274 276 277 279 281 283 285 285 285 284 283 284 286 288 288 289 290 290 291 292 293 295 296 297 298 299 299 299 299 300 300 301 301 301 302 302 303 304 304 305 305 305 305 305 306 306 307 308 309 308 308 309 309 310 310 310 309 310 310 309 308 306 301
274 275 277 278 281 283 284 284 283 282 282 283 286 287 288 288 289 289 291 293 294 295 297 298 299 298 298 299 300 300 301 301 301 301 301 302 303 304 304 304 304 305 305 306 306 307 308 308 308 308 308 308 308 308 309 309 308 308 308 307 306 303 298
274 276 277 278 279 281 282 281 281 281 283 285 287 287 287 288 289 290 291 293 295 296 297 298 298 298 299 300 300 301 301 301 301 301 302 303 304 304 304 304 304 305 306 306 307 308 308 308 308 307 307 307 307 306 307 307 306 306 306 305 303 301 296
Height
10972 10971 10970 10968 10968 10966 10963 10961 10959 10957 10955 10951 10946 10941 10941 10943 10943 10941 10939 10938 10935 10932 10929 10927 10924 10921 10917 10914 10911 10908 10905 10902 10898 10895 10891 10888 10885 10882 10879 10876 10873 10870 10867 10864 10861 10858 10855 10852 10850 10847 10845 10843 10841 10839 10838 10837 10835 10834 10833 10833 10832 10832 10831
10970 10969 10968 10966 10965 10965 10963 10959 10957 10955 10953 10949 10944 10941 10940 10941 10941 10939 10937 10934 10932 10929 10926 10924 10921 10918 10915 10912 10908 10905 10902 10898 10895 10891 10888 10885 10882 10879 10876 10873 10869 10866 10862 10859 10856 10853 10850 10847 10844 10841 10839 10837 10835 10833 10831 10830 10829 10828 10826 10825 10825 10825 10824
10967 10967 10966 10964 10961 10961 10961 10959 10954 10952 10951 10948 10945 10943 10942 10941 10939 10936 10933 10930 10928 10926 10924 10921 10918 10915 10911 10908 10905 10902 10899 10895 10892 10887 10884 10882 10879 10876 10872 10868 10865 10862 10858 10854 10851 10847 10844 10841 10837 10834 10832 10829 10827 10826 10824 10823 10822 10821 10819 10818 10817 10817 10816
10963 10963 10962 10962 10959 10956 10957 10956 10951 10949 10949 10946 10944 10943 10941 10939 10935 10932 10929 10927 10925 10923 10921 10918 10915 10912 10908 10905 10902 10899 10895 10891 10888 10884 10881 10879 10876 10872 10868 10864 10860 10857 10853 10849 10846 10842 10838 10835 10831 10828 10825 10822 10820 10818 10817 10816 10815 10813 10811 10811 10810 10808 10807
10961 10959 10958 10958 10956 10953 10952 10951 10947 10945 10943 10941 10941 10941 10939 10936 10932 10929 10926 10924 10922 10919 10917 10915 10912 10908 10904 10901 10898 10894 10891 10887 10882 10879 10876 10874 10872 10868 10864 10860 10856 10852 10848 10844 10840 10837 10833 10830 10826 10822 10819 10816 10813 10811 10810 10808 10807 10805 10803 10803 10801 10800 10800
10960 10957 10954 10952 10952 10950 10948 10948 10944 10940 10937 10936 10936 10937 10934 10932 10930 10926 10923 10920 10918 10915 10913 10911 10908 10904 10901 10897 10893 10889 10885 10881 10877 10874 10872 10870 10867 10863 10859 10856 10852 10848 10843 10839 10835 10832 10828 10824 10821 10817 10813 10810 10807 10805 10803 10802 10800 10797 10795 10795 10793 10792 10792
10956 10956 10953 10950 10948 10947 10946 10945 10941 10936 10933 10933 10933 10931 10929 10927 10925 10922 10918 10915 10914 10911 10909 10907 10902 10899 10897 10891 10887 10883 10880 10875 10872 10869 10867 10865 10862 10858 10854 10850 10846 10842 10837 10833 10829 10825 10822 10818 10814 10810 10807 10803 10800 10797 10795 10794 10792 10790 10788 10787 10786 10784 10783
10952 10952 10951 10948 10946 10944 10944 10943 10939 10934 10932 10931 10930 10927 10925 10923 10920 10917 10912 10909 10908 10906 10904 10901 10897 10894 10892 10886 10880 10877 10874 10871 10868 10865 10862 10859 10856 10852 10847 10843 10840 10836 10831 10826 10822 10818 10815 10812 10807 10803 10799 10795 10792 10789 10787 10785 10784 10782 10780 10779 10777 10775 10773
10949 10948 10947 10945 10943 10942 10942 10941 10937 10933 10929 10927 10926 10924 10921 10918 10915 10912 10907 10903 10902 10901 10899 10896 10891 10888 10885 10880 10875 10871 10869 10865 10862 10859 10856 10853 10850 10845 10840 10836 10832 10829 10825 10820 10815 10811 10806 10802 10799 10795 10791 10787 10783 10780 10778 10776 10775 10774 10773 10771 10769 10766 10764
10945 10944 10943 10940 10938 10937 10937 10934 10932 10930 10926 10921 10919 10919 10917 10913 10909 10906 10902 10898 10896 10895 10893 10890 10886 10882 10877 10872 10870 10866 10863 10860 10856 10853 10850 10847 10843 10839 10834 10829 10825 10822 10819 10814 10809 10805 10800 10795 10790 10786 10782 10779 10775 10772 10770 10768 10765 10765 10764 10763 10761 10758 10757
10940 10939 10938 10936 10933 10931 10931 10929 10926 10924 10921 10916 10912 10911 10910 10907 10903 10899 10895 10892 10890 10889 10887 10882 10878 10877 10873 10867 10865 10862 10858 10855 10851 10847 10844 10840 10836 10831 10827 10822 10818 10814 10812 10807 10802 10798 10793 10788 10783 10778 10774 10770 10768 10764 10762 10760 10758 10755 10754 10752 10750 10749 10747
10933 10933 10932 10931 10928 10924 10923 10923 10920 10916 10915 10912 10907 10904 10902 10899 10896 10892 10888 10885 10884 10883 10880 10874 10869 10870 10867 10862 10859 10856 10851 10848 10845 10841 10839 10834 10828 10823 10819 10815 10810 10806 10802 10799 10795 10790 10785 10781 10776 10771 10766 10762 10758 10755 10752 10752 10751 10748 10744 10742 10739 10736 10733
10927 10926 10926 10925 10923 10920 10917 10916 10913 10909 10907 10906 10903 10899 10896 10892 10889 10886 10881 10878 10879 10878 10874 10869 10865 10863 10859 10854 10852 10850 10846 10843 10839 10836 10832 10827 10821 10816 10812 10808 10804 10799 10795 10791 10788 10784 10779 10774 10769 10764 10760 10755 10751 10747 10744 10743 10743 10741 10737 10734 10731 10726 10721
10920 10920 10919 10918 10917 10915 10912 10909 10906 10902 10899 10898 10897 10893 10889 10886 10884 10880 10875 10871 10872 10871 10866 10861 10860 10859 10855 10849 10845 10843 10840 10838 10835 10830 10825 10819 10814 10810 10805 10801 10797 10792 10788 10783 10780 10776 10771 10766 10761 10757 10753 10749 10744 10741 10738 10735 10734 10733 10730 10726 10722 10718 10713
10913 10913 10912 10911 10911 10910 10908 10905 10900 10897 10894 10892 10890 10886 10882 10880 10878 10875 10869 10864 10865 10864 10857 10852 10852 10851 10849 10844 10840 10836 10833 10830 10827 10823 10818 10811 10806 10802 10798 10794 10790 10785 10781 10776 10772 10768 10763 10758 10753 10749 10745 10742 10738 10734 10731 10727 10725 10724 10722 10717 10712 10708 10704
10905 10905 10905 10905 10904 10902 10902 10900 10896 10892 10889 10887 10885 10880 10876 10875 10873 10870 10863 10856 10857 10856 10849 10844 10842 10841 10840 10837 10834 10830 10825 10822 10819 10815 10809 10804 10799 10795 10791 10787 10783 10778 10774 10769 10763 10759 10755 10750 10745 10741 10737 10734 10730 10727 10723 10720 10717 10715 10713 10708 10703 10699 10694
10898 10897 10896 10897 10897 10895 10894 10893 10890 10888 10885 10881 10878 10874 10870 10869 10869 10867 10858 10850 10851 10850 10842 10838 10835 10833 10832 10831 10829 10825 10820 10816 10812 10807 10802 10796 10792 10788 10784 10780 10775 10771 10766 10761 10755 10750 10746 10741 10736 10732 10729 10726 10724 10720 10716 10713 10709 10707 10704 10699 10695 10690 10684
10892 10890 10888 10888 10889 10889 10888 10885 10884 10883 10879 10873 10871 10867 10863 10862 10863 10861 10852 10845 10846 10843 10835 10832 10830 10826 10825 10826 10824 10819 10813 10809 10806 10801 10795 10790 10785 10782 10778 10773 10768 10763 10757 10752 10747 10742 10738 10733 10728 10724 10722 10720 10717 10714 10710 10706 10702 10698 10694 10690 10686 10682 10677
10885 10884 10882 10880 10880 10880 10881 10878 10877 10877 10872 10867 10863 10860 10856 10854 10854 10851 10843 10839 10840 10837 10829 10825 10824 10821 10819 10818 10815 10809 10805 10801 10797 10793 10788 10783 10779 10775 10771 10766 10761 10756 10750 10744 10740 10735 10731 10726 10721 10717 10715 10713 10711 10708 10704 10700 10695 10690 10685 10680 10676 10673 10670
10877 10876 10876 10874 10872 10871 10871 10870 10869 10869 10866 10862 10857 10853 10851 10847 10845 10842 10836 10833 10835 10831 10822 10818 10817 10814 10812 10809 10805 10800 10796 10792 10788 10785 10782 10777 10772 10768 10763 10758 10752 10747 10742 10736 10732 10729 10725 10720 10716 10712 10709 10707 10704 10700 10698 10694 10689 10684 10679 10673 10667 10663 10660
10870 10869 10868 10868 10865 10863 10862 10861 10859 10858 10857 10855 10850 10847 10845 10840 10836 10834 10829 10827 10829 10824 10817 10813 10811 10808 10805 10801 10797 10792 10788 10784 10780 10777 10774 10770 10765 10761 10757 10751 10744 10739 10734 10729 10724 10720 10716 10712 10709 10706 10703 10700 10696 10692 10688 10685 10681 10676 10672 10666 10661 10656 10652
10864 10863 10861 10860 10858 10855 10854 10852 10850 10847 10847 10846 10843 10840 10838 10831 10828 10827 10822 10823 10826 10819 10811 10807 10804 10800 10796 10791 10786 10783 10779 10776 10772 10768 10765 10761 10757 10754 10750 10744 10737 10731 10726 10720 10715 10710 10706 10702 10700 10698 10694 10692 10689 10684 10680 10676 10672 10667 10662 10657 10653 10649 10644
10856 10856 10855 10854 10851 10847 10844 10843 10842 10840 10838 10837 10835 10832 10829 10823 10820 10818 10813 10813 10815 10809 10801 10796 10792 10789 10786 10780 10775 10773 10770 10767 10764 10759 10755 10751 10748 10745 10742 10737 10731 10724 10718 10712 10706 10700 10696 10692 10690 10688 10685 10682 10680 10677 10672 10668 10664 10659 10653 10648 10643 10640 10636
10848 10847 10848 10847 10844 10839 10836 10833 10832 10832 10832 10830 10827 10823 10821 10817 10812 10809 10804 10800 10799 10796 10791 10787 10782 10779 10775 10769 10766 10763 10760 10758 10756 10752 10747 10743 10740 10737 10733 10728 10724 10719 10713 10706 10699 10693 10688 10684 10680 10678 10675 10671 10670 10667 10663 10658 10655 10650 10644 10639 10635 10631 10626
10840 10841 10841 10840 10837 10833 10829 10825 10823 10824 10824 10821 10818 10816 10814 10810 10804 10800 10796 10791 10788 10786 10782 10778 10774 10770 10766 10761 10758 10755 10751 10748 10748 10744 10739 10735 10730 10726 10722 10717 10713 10710 10705 10699 10692 10686 10681 10676 10672 10669 10666 10661 10659 10657 10652 10648 10644 10640 10634 10630 10625 10620 10614
10833 10836 10834 10831 10829 10826 10822 10817 10816 10817 10816 10811 10808 10810 10810 10805 10797 10791 10787 10782 10779 10777 10775 10772 10767 10763 10758 10755 10751 10748 10744 10740 10738 10736 10733 10728 10722 10717 10711 10707 10703 10699 10696 10692 10686 10680 10676 10672 10667 10663 10659 10654 10651 10648 10644 10638 10634 10629 10623 10618 10613 10608 10603
10825 10828 10826 10823 10822 10819 10817 10815 10809 10806 10806 10802 10799 10800 10802 10799 10791 10783 10777 10774 10771 10768 10766 10764 10760 10755 10752 10748 10745 10741 10738 10733 10729 10727 10726 10721 10714 10707 10702 10698 10694 10690 10686 10682 10677 10672 10670 10666 10661 10657 10653 10648 10644 10641 10637 10631 10625 10619 10614 10608 10603 10598 10594
10817 10816 10816 10816 10814 10810 10815 10818 10806 10794 10793 10793 10791 10789 10789 10787 10780 10772 10768 10765 10762 10760 10758 10754 10749 10745 10743 10740 10737 10734 10731 10727 10721 10718 10717 10712 10704 10698 10694 10690 10686 10682 10677 10672 10666 10662 10659 10657 10653 10648 10644 10640 10636 10632 10628 10624 10618 10611 10606 10601 10596 10591 10586
10807 10803 10806 10808 10804 10801 10807 10811 10801 10790 10786 10785 10782 10779 10776 10773 10770 10765 10760 10755 10751 10750 10750 10746 10740 10735 10733 10731 10728 10724 10721 10718 10712 10708 10707 10703 10697 10693 10688 10684 10680 10675 10670 10666 10660 10654 10650 10647 10644 10639 10634 10631 10628 10623 10619 10615 10611 10606 10602 10597 10591 10585 10580
10800 10793 10795 10797 10794 10792 10793 10791 10787 10785 10781 10776 10773 10768 10762 10761 10762 10760 10755 10748 10743 10741 10741 10738 10731 10725 10723 10721 10718 10714 10711 10708 10703 10699 10696 10693 10689 10686 10682 10677 10673 10668 10662 10658 10654 10648 10643 10639 10635 10631 10626 10622 10619 10616 10611 10607 10603 10600 10596 10591 10585 10579 10575
10791 10786 10786 10785 10783 10783 10781 10776 10774 10774 10771 10767 10763 10757 10751 10752 10754 10754 10750 10745 10739 10735 10734 10731 10725 10719 10716 10713 10709 10705 10703 10699 10695 10691 10688 10683 10680 10678 10674 10669 10665 10660 10655 10649 10645 10641 10637 10632 10627 10623 10619 10614 10610 10606 10602 10599 10595 10591 10588 10583 10578 10573 10569
10780 10777 10777 10776 10773 10770 10767 10765 10763 10762 10761 10758 10753 10746 10744 10743 10743 10743 10743 10740 10733 10728 10725 10722 10716 10713 10710 10705 10700 10696 10694 10690 10686 10683 10681 10676 10672 10669 10666 10660 10655 10651 10647 10641 10636 10632 10629 10624 10618 10615 10612 10607 10602 10597 10593 10590 10587 10583 10580 10576 10572 10567 10563
10770 10767 10765 10765 10765 10760 10755 10752 10750 10748 10748 10745 10738 10735 10735 10733 10728 10728 10729 10728 10724 10720 10717 10713 10708 10705 10704 10699 10694 10691 10687 10683 10679 10675 10672 10669 10664 10661 10657 10652 10647 10642 10639 10634 10628 10624 10620 10615 10609 10605 10602 10599 10594 10589 10585 10582 10579 10576 10573 10569 10565 10561 10557
10759 10757 10754 10754 10755 10752 10746 10742 10739 10738 10737 10734 10727 10722 10721 10719 10716 10715 10714 10713 10712 10710 10708 10705 10702 10699 10696 10692 10688 10684 10680 10675 10669 10666 10662 10658 10655 10652 10648 10643 10638 10633 10629 10625 10620 10614 10610 10605 10600 10595 10591 10588 10584 10580 10577 10574 10570 10568 10566 10562 10559 10555 10551
10747 10745 10744 10743 10742 10741 10739 10735 10732 10731 10731 10730 10724 10717 10711 10707 10707 10704 10700 10699 10701 10700 10698 10697 10695 10691 10687 10683 10678 10674 10671 10665 10659 10654 10651 10647 10644 10642 10638 10632 10627 10622 10618 10614 10609 10604 10599 10594 10590 10585 10581 10577 10573 10570 10568 10565 10561 10559 10557 10554 10552 10549 10545
10738 10735 10734 10733 10731 10729 10727 10725 10724 10723 10723 10722 10719 10715 10709 10703 10700 10696 10690 10688 10689 10690 10690 10690 10688 10683 10679 10675 10670 10666 10663 10657 10650 10645 10641 10636 10633 10632 10628 10622 10616 10612 10607 10603 10598 10593 10588 10583 10579 10575 10571 10567 10562 10560 10559 10556 10552 10550 10549 10546 10544 10542 10540
10727 10724 10725 10726 10723 10719 10715 10714 10713 10712 10712 10711 10710 10709 10705 10699 10694 10689 10685 10682 10680 10679 10678 10676 10673 10669 10666 10663 10659 10655 10651 10646 10640 10635 10630 10626 10622 10620 10617 10611 10606 10601 10596 10592 10587 10583 10578 10573 10569 10565 10561 10558 10553 10549 10549 10547 10543 10541 10540 10538 10536 10535 10534
10715 10713 10713 10716 10716 10713 10709 10705 10702 10700 10699 10700 10700 10698 10694 10691 10687 10682 10678 10676 10673 10669 10666 10662 10657 10654 10651 10648 10644 10641 10638 10633 10627 10623 10619 10614 10610 10607 10603 10599 10595 10591 10585 10579 10576 10573 10568 10563 10559 10555 10551 10548 10544 10540 10539 10538 10535 10533 10532 10530 10529 10528 10527